Content
SEND FEEDBACK

Daily
Averages
Monthly
Summary
United States of America

CHESTER, SOUTH CAROLINA


Home > North America > United States > South Carolina
Elevation: 709 feet     Latitude: 34 47N     Longitude: 081 11W

WEATHER
 
SELECT A DAY
Number of Records: 129,971;   Date Range: 12/16/08 - 10/1/14
 
SHARE

PRINT THIS DATA

[ ← Previous Day ]
WEATHER ALMANAC - JANUARY 23, 2013
[ Next Day → ]
[ °C ]   °F
Weather ElementAverageHighLow
Temperature37.2 °F48.2 °F (2:35 pm)26.6 °F (5:15 am)
Dewpoint19.1 °F30.2 °F (9:55 pm)8.6 °F (12:55 am)
Humidity50 %75 % (9:55 pm)31 % (11:15 am)
Barometer30.24 in30.35 in (9:15 am)30.08 in (11:35 pm)
Wind Speed3.2 mph9.2 mph (9:15 am)
Weather ElementAverage
Visibility10 mi
Wind DirectionESE (121.8 °)

Weather ElementTotal
Precipitation---
Heating Degree Days27.6 (Base 65)
Averaged from 56 records on January 23, 2013
WEATHER CONDITIONS BREAKOUT
WIND DIRECTION BREAKOUT
WEATHER BY HOUR - JANUARY 23, 2013
[ °C ]   °F
Local TimeTemperatureDewpointHumidityBarometerVisibilityWind DirectionWind SpeedGust SpeedPrecipitationEventsConditions
12:55 AM32.0 °F8.6 °F38 %30.27 in10.0 miCalmClear
1:15 AM30.2 °F10.4 °F44 %30.27 in10.0 miCalmClear
1:35 AM30.2 °F14.0 °F51 %30.27 in10.0 miCalmClear
1:55 AM28.4 °F14.0 °F55 %30.28 in10.0 miCalmClear
2:15 AM28.4 °F14.0 °F55 %30.28 in10.0 miCalmClear
2:35 AM28.4 °F14.0 °F55 %30.29 in10.0 miCalmClear
2:55 AM28.4 °F17.6 °F64 %30.29 in10.0 miCalmClear
3:15 AM28.4 °F12.2 °F51 %30.28 in10.0 miCalmClear
3:35 AM28.4 °F14.0 °F55 %30.29 in10.0 miCalmClear
3:55 AM28.4 °F17.6 °F64 %30.28 in10.0 miCalmClear
4:15 AM28.4 °F12.2 °F51 %30.29 in10.0 miCalmClear
4:35 AM28.4 °F14.0 °F55 %30.29 in10.0 miCalmClear
5:15 AM26.6 °F14.0 °F59 %30.30 in10.0 miCalmClear
5:35 AM26.6 °F14.0 °F59 %30.30 in10.0 miCalmClear
6:15 AM26.6 °F10.4 °F51 %30.31 in10.0 miCalmClear
6:35 AM26.6 °F12.2 °F55 %30.32 in10.0 miCalmClear
7:35 AM26.6 °F12.2 °F55 %30.33 in10.0 miSSE (160°)3.5 mphClear
8:15 AM32.0 °F8.6 °F38 %30.33 in10.0 miSouth (170°)4.6 mphClear
8:35 AM30.2 °F14.0 °F51 %30.34 in10.0 miCalmClear
9:15 AM32.0 °F12.2 °F44 %30.35 in10.0 miSSE (150°)9.2 mphClear
9:35 AM32.0 °F10.4 °F41 %30.35 in10.0 miSSE (160°)8.1 mphClear
10:15 AM35.6 °F12.2 °F38 %30.35 in10.0 miSE (130°)3.5 mphClear
10:35 AM37.4 °F12.2 °F36 %30.35 in10.0 miSE (130°)4.6 mphClear
11:15 AM41.0 °F12.2 °F31 %30.34 in10.0 miCalmClear
11:35 AM41.0 °F12.2 °F31 %30.33 in10.0 miCalmClear
12:15 PM42.8 °F14.0 °F31 %30.30 in10.0 miESE (110°)4.6 mphClear
12:35 PM42.8 °F14.0 °F31 %30.29 in10.0 miSSW (200°)6.9 mphClear
1:15 PM44.6 °F17.6 °F34 %30.26 in10.0 miSW (230°)6.9 mphClear
1:35 PM44.6 °F15.8 °F31 %30.24 in10.0 miSouth (190°)6.9 mphClear
2:15 PM46.4 °F17.6 °F32 %30.23 in10.0 miWest (270°)6.9 mphClear
2:35 PM48.2 °F19.4 °F32 %30.22 in10.0 miWSW (250°)8.1 mphClear
2:55 PM46.4 °F19.4 °F34 %30.22 in10.0 miWest (260°)5.8 mphClear
3:15 PM48.2 °F21.2 °F34 %30.22 in10.0 miSW (230°)8.1 mphClear
3:35 PM48.2 °F21.2 °F34 %30.21 in10.0 miSW (220°)3.5 mphClear
3:55 PM48.2 °F21.2 °F34 %30.20 in10.0 miSouth (190°)3.5 mphClear
4:15 PM48.2 °F21.2 °F34 %30.19 in10.0 miSW (220°)3.5 mphClear
4:35 PM46.4 °F23.0 °F40 %30.19 in10.0 miSouth (190°)4.6 mphClear
4:55 PM46.4 °F23.0 °F40 %30.19 in10.0 miSouth (170°)3.5 mphClear
5:15 PM46.4 °F24.8 °F43 %30.18 in10.0 miSouth (170°)4.6 mphClear
5:35 PM44.6 °F24.8 °F46 %30.18 in10.0 miSouth (170°)3.5 mphClear
5:55 PM42.8 °F26.6 °F53 %30.18 in10.0 miSSE (160°)3.5 mphClear
6:15 PM41.0 °F26.6 °F57 %30.17 in10.0 miSouth (170°)3.5 mphClear
6:35 PM41.0 °F26.6 °F57 %30.17 in10.0 miSSE (160°)4.6 mphClear
6:55 PM42.8 °F26.6 °F53 %30.17 in10.0 miSouth (170°)4.6 mphClear
7:15 PM41.0 °F26.6 °F57 %30.16 in10.0 miSouth (180°)5.8 mphClear
7:35 PM41.0 °F26.6 °F57 %30.15 in10.0 miSouth (170°)4.6 mphClear
7:55 PM41.0 °F26.6 °F57 %30.15 in10.0 miSouth (190°)3.5 mphClear
8:15 PM37.4 °F28.4 °F70 %30.15 in10.0 miSouth (190°)3.5 mphClear
8:55 PM39.2 °F28.4 °F65 %30.14 in10.0 miSSW (200°)3.5 mphClear
9:15 PM37.4 °F28.4 °F70 %30.14 in10.0 miCalmClear
9:55 PM37.4 °F30.2 °F75 %30.12 in10.0 miSSW (210°)4.6 mphClear
10:15 PM39.2 °F30.2 °F70 %30.11 in10.0 miSSW (210°)5.8 mphClear
10:55 PM37.4 °F30.2 °F75 %30.11 in10.0 miSSW (210°)4.6 mphClear
11:15 PM37.4 °F30.2 °F75 %30.09 in10.0 miSSW (200°)5.8 mphClear
11:35 PM37.4 °F30.2 °F75 %30.08 in10.0 miSW (220°)3.5 mphClear
11:55 PM37.4 °F30.2 °F75 %30.08 in10.0 miSSW (210°)3.5 mphClear
Hourly data recorded from KDCM, located miles away from Chester, South Carolina







STORIES FROM OUR PARTNERS